EWG1244 EDDH-LEPA

Flight info

Callsign EWG1244
Flight time N/A
Altitude 23000
Route IDEKO8C IDEKO N850 PIROT/N0451F350 N850 XAROL/N0454F360 DCT BOMBI DCT GIGET DCT ABUKA DCT KRH DCT NATOR/N0454F350 DCT LUTIX DCT BENOT DCT NEMOS DCT GEVEA DCT INCUS DCT BALSI DCT RETNO DCT TUPOX DCT MTG DCT DIVKO DCT VATIR N852 VERSO L129 LUNIK
Aircraft A320/M-SDE3FGHIRWY/LB1

Departure

Time 2026-05-07 12:58
Airport Hamburg Helmut Schmidt Airport (EDDH)

Arrival

Time N/A
Airport Palma de Mallorca Airport (LEPA)
Time Latitude Longitude Altitude Speed Heading
2026-05-07 12:42 53.62942 10.00288 47 ft 0 kts 123°
2026-05-07 12:50 53.62952 10.00263 46 ft 4 kts 123°
2026-05-07 12:50 53.62967 10.00225 46 ft 4 kts 123°
2026-05-07 12:50 53.62980 10.00194 47 ft 2 kts 123°
2026-05-07 12:51 53.62995 10.00159 45 ft 4 kts 137°
2026-05-07 12:51 53.63015 10.00140 47 ft 4 kts 195°
2026-05-07 12:51 53.63021 10.00144 46 ft 0 kts 212°
2026-05-07 12:53 53.62996 10.00111 45 ft 8 kts 217°
2026-05-07 12:53 53.62952 10.00055 48 ft 8 kts 217°
2026-05-07 12:53 53.62900 10.00040 48 ft 9 kts 179°
2026-05-07 12:53 53.62848 10.00005 46 ft 8 kts 207°
2026-05-07 12:54 53.62793 9.99949 47 ft 13 kts 211°
2026-05-07 12:54 53.62690 9.99846 43 ft 20 kts 210°
2026-05-07 12:54 53.62629 9.99658 47 ft 18 kts 257°
2026-05-07 12:54 53.62605 9.99461 44 ft 16 kts 259°
2026-05-07 12:55 53.62578 9.99236 44 ft 24 kts 258°
2026-05-07 12:55 53.62542 9.98925 47 ft 27 kts 259°
2026-05-07 12:55 53.62507 9.98618 47 ft 26 kts 259°
2026-05-07 12:55 53.62473 9.98322 47 ft 25 kts 259°
2026-05-07 12:56 53.62409 9.98052 46 ft 25 kts 234°
2026-05-07 12:56 53.62295 9.97821 47 ft 26 kts 230°
2026-05-07 12:56 53.62192 9.97609 47 ft 17 kts 244°
2026-05-07 12:56 53.62199 9.97428 44 ft 13 kts 305°
2026-05-07 12:57 53.62211 9.97402 43 ft 3 kts 310°
2026-05-07 12:57 53.62236 9.97370 41 ft 6 kts 328°
2026-05-07 12:57 53.62291 9.97344 40 ft 10 kts
2026-05-07 12:57 53.62376 9.97486 40 ft 35 kts 51°
2026-05-07 12:58 53.62690 9.98122 42 ft 102 kts 50°
2026-05-07 12:58 53.63245 9.99251 47 ft 150 kts 51°
2026-05-07 12:58 53.63921 10.00665 550 ft 156 kts 52°
2026-05-07 12:58 53.64633 10.02129 1170 ft 171 kts 51°
2026-05-07 12:59 53.65442 10.03770 1586 ft 193 kts 50°
2026-05-07 12:59 53.66328 10.05561 2247 ft 201 kts 51°
2026-05-07 12:59 53.67230 10.07387 3095 ft 204 kts 51°
2026-05-07 12:59 53.68146 10.09243 3877 ft 208 kts 50°
2026-05-07 13:00 53.69323 10.10670 4638 ft 215 kts 19°
2026-05-07 13:00 53.70835 10.10659 5374 ft 229 kts 344°
2026-05-07 13:00 53.72187 10.08981 5725 ft 259 kts 309°
2026-05-07 13:00 53.73188 10.06289 6253 ft 278 kts 300°
2026-05-07 13:01 53.74049 10.03325 7047 ft 284 kts 296°
2026-05-07 13:01 53.74725 10.00194 7882 ft 287 kts 281°
2026-05-07 13:01 53.74791 9.96809 8704 ft 291 kts 263°
2026-05-07 13:01 53.74276 9.93498 9551 ft 293 kts 246°
2026-05-07 13:02 53.73465 9.90334 10417 ft 294 kts 246°
2026-05-07 13:02 53.72637 9.87060 10768 ft 314 kts 247°
2026-05-07 13:02 53.71753 9.83535 10953 ft 337 kts 247°
2026-05-07 13:02 53.70817 9.79796 11305 ft 352 kts 247°
2026-05-07 13:03 53.69853 9.75961 11929 ft 357 kts 247°
2026-05-07 13:03 53.68872 9.72094 12635 ft 360 kts 247°
2026-05-07 13:03 53.67879 9.68193 13355 ft 363 kts 246°
2026-05-07 13:03 53.66666 9.64440 14022 ft 366 kts 235°
2026-05-07 13:04 53.64964 9.61235 14658 ft 370 kts 221°
2026-05-07 13:04 53.62843 9.58756 15239 ft 373 kts 208°
2026-05-07 13:04 53.60415 9.57154 15847 ft 377 kts 195°
2026-05-07 13:04 53.57811 9.56450 16425 ft 381 kts 188°
2026-05-07 13:05 53.55205 9.55941 16997 ft 384 kts 188°
2026-05-07 13:05 53.52508 9.55415 17587 ft 386 kts 188°
2026-05-07 13:05 53.49828 9.54890 18149 ft 389 kts 188°
2026-05-07 13:05 53.47121 9.54362 18656 ft 392 kts 188°
2026-05-07 13:06 53.44403 9.53832 19127 ft 395 kts 188°
2026-05-07 13:06 53.41701 9.53302 19610 ft 397 kts 188°
2026-05-07 13:06 53.38955 9.52761 20103 ft 399 kts 188°
2026-05-07 13:06 53.36192 9.52212 20597 ft 401 kts 188°
2026-05-07 13:07 53.33413 9.51658 21058 ft 403 kts 188°
2026-05-07 13:07 53.30616 9.51107 21511 ft 406 kts 188°
2026-05-07 13:07 53.27807 9.50559 21973 ft 408 kts 188°
2026-05-07 13:07 53.24979 9.50009 22430 ft 410 kts 188°
2026-05-07 13:08 53.23100 9.49642 22737 ft 411 kts 188°
2026-05-07 13:08 53.20245 9.49086 22963 ft 413 kts 188°
2026-05-07 13:08 53.17352 9.48524 22999 ft 424 kts 188°
2026-05-07 13:08 53.14404 9.47954 22995 ft 429 kts 188°
2026-05-07 13:09 53.11424 9.47375 22993 ft 430 kts 188°
2026-05-07 13:09 53.08453 9.46796 22996 ft 430 kts 188°
2026-05-07 13:09 53.05477 9.46219 22993 ft 430 kts 188°
2026-05-07 13:09 53.02503 9.45647 22990 ft 431 kts 187°
2026-05-07 13:10 52.99522 9.45077 22989 ft 431 kts 188°
2026-05-07 13:10 52.96548 9.44487 22990 ft 430 kts 188°
2026-05-07 13:10 52.93574 9.43857 22989 ft 430 kts 188°
2026-05-07 13:10 52.90604 9.43208 22991 ft 431 kts 188°
2026-05-07 13:11 52.87635 9.42555 22984 ft 431 kts 188°
2026-05-07 13:11 52.84663 9.41901 22985 ft 431 kts 188°
2026-05-07 13:11 52.81689 9.41251 22983 ft 431 kts 188°
2026-05-07 13:11 52.78752 9.40618 22983 ft 431 kts 188°
2026-05-07 13:12 52.75781 9.39985 22983 ft 431 kts 188°
2026-05-07 13:12 52.72799 9.39359 22990 ft 431 kts 188°
2026-05-07 13:12 52.69820 9.38737 22994 ft 431 kts 188°
2026-05-07 13:12 52.66844 9.38116 23000 ft 432 kts 188°
2026-05-07 13:13 52.63861 9.37492 23008 ft 432 kts 188°